TimeCDT,TemperatureF,Dew PointF,Humidity,Sea Level PressureIn,VisibilityMPH,Wind Direction,Wind SpeedMPH,Gust SpeedMPH,PrecipitationIn,Events,Conditions,WindDirDegrees,DateUTC
12:15 AM,55.4,53.6,94,29.91,0.5,SE,8.1,-,N/A,,Overcast,140,2012-10-24 05:15:00
12:35 AM,55.4,55.4,100,29.90,0.2,SSE,12.7,-,N/A,,Overcast,150,2012-10-24 05:35:00
1:15 AM,55.4,55.4,100,29.91,0.2,SSE,10.4,-,N/A,,Overcast,150,2012-10-24 06:15:00
1:35 AM,55.4,55.4,100,29.90,0.2,SSE,9.2,-,N/A,,Overcast,150,2012-10-24 06:35:00
1:55 AM,55.4,55.4,100,29.90,0.2,SSE,11.5,-,N/A,,Overcast,150,2012-10-24 06:55:00
2:15 AM,55.4,55.4,100,29.90,0.2,SSE,11.5,-,N/A,,Overcast,150,2012-10-24 07:15:00
2:35 AM,55.4,55.4,100,29.90,0.5,SSE,8.1,-,N/A,,Overcast,150,2012-10-24 07:35:00
2:55 AM,55.4,55.4,100,29.90,0.2,SSE,10.4,-,N/A,,Overcast,160,2012-10-24 07:55:00
3:15 AM,55.4,55.4,100,29.89,0.5,SSE,10.4,-,N/A,,Overcast,160,2012-10-24 08:15:00
3:35 AM,55.4,53.6,94,29.90,0.5,SSE,9.2,-,N/A,,Overcast,150,2012-10-24 08:35:00
3:55 AM,55.4,53.6,94,29.90,0.5,SSE,9.2,-,N/A,,Overcast,150,2012-10-24 08:55:00
4:15 AM,55.4,53.6,94,29.90,0.5,SSE,10.4,-,N/A,,Overcast,150,2012-10-24 09:15:00
4:35 AM,55.4,53.6,94,29.90,0.5,South,6.9,-,N/A,,Overcast,170,2012-10-24 09:35:00
4:55 AM,55.4,53.6,94,29.90,0.5,SSE,6.9,-,N/A,,Overcast,160,2012-10-24 09:55:00
5:15 AM,55.4,53.6,94,29.90,0.5,SSE,6.9,-,N/A,,Overcast,160,2012-10-24 10:15:00
5:35 AM,55.4,53.6,94,29.90,0.5,SSE,8.1,-,N/A,,Overcast,150,2012-10-24 10:35:00
5:55 AM,55.4,53.6,94,29.90,0.5,SSE,12.7,-,N/A,,Overcast,150,2012-10-24 10:55:00
6:15 AM,55.4,53.6,94,29.90,0.2,SSE,8.1,-,N/A,,Overcast,150,2012-10-24 11:15:00
6:35 AM,53.6,51.8,94,29.90,0.5,SE,8.1,-,N/A,,Overcast,140,2012-10-24 11:35:00
6:55 AM,53.6,53.6,100,29.90,0.8,SSE,9.2,-,N/A,,Overcast,160,2012-10-24 11:55:00
7:15 AM,55.4,53.6,94,29.91,0.2,SSE,8.1,-,N/A,,Overcast,160,2012-10-24 12:15:00
7:35 AM,53.6,51.8,94,29.91,0.2,SSE,9.2,-,N/A,,Overcast,150,2012-10-24 12:35:00
7:55 AM,53.6,53.6,100,29.91,0.2,SSE,8.1,-,N/A,,Overcast,160,2012-10-24 12:55:00
8:15 AM,55.4,53.6,94,29.91,0.2,SSE,9.2,-,N/A,,Overcast,160,2012-10-24 13:15:00
8:35 AM,55.4,53.6,94,29.92,0.2,South,8.1,-,N/A,,Overcast,170,2012-10-24 13:35:00
8:55 AM,55.4,53.6,94,29.92,0.8,South,6.9,-,N/A,,Overcast,170,2012-10-24 13:55:00
9:15 AM,55.4,53.6,94,29.92,0.8,South,8.1,-,N/A,,Overcast,180,2012-10-24 14:15:00
9:35 AM,55.4,55.4,100,29.92,1.5,South,9.2,-,N/A,,Overcast,170,2012-10-24 14:35:00
9:55 AM,55.4,53.6,94,29.91,3.0,SSE,8.1,-,N/A,,Overcast,160,2012-10-24 14:55:00
10:35 AM,57.2,57.2,100,29.91,3.0,South,9.2,-,N/A,,Overcast,170,2012-10-24 15:35:00
10:55 AM,57.2,55.4,94,29.92,3.0,South,8.1,-,N/A,,Overcast,180,2012-10-24 15:55:00
11:15 AM,57.2,55.4,94,29.91,3.0,South,8.1,-,N/A,,Overcast,170,2012-10-24 16:15:00
11:35 AM,59.0,57.2,94,29.91,3.0,South,8.1,-,N/A,,Overcast,180,2012-10-24 16:35:00
11:55 AM,59.0,57.2,94,29.90,5.0,SSE,8.1,-,N/A,,Overcast,160,2012-10-24 16:55:00
12:15 PM,59.0,57.2,94,29.90,5.0,South,5.8,-,N/A,,Overcast,170,2012-10-24 17:15:00
12:35 PM,60.8,57.2,88,29.90,5.0,SSE,8.1,-,N/A,,Overcast,160,2012-10-24 17:35:00
12:55 PM,60.8,59.0,94,29.89,5.0,SSE,8.1,-,N/A,,Overcast,150,2012-10-24 17:55:00
1:15 PM,60.8,57.2,88,29.89,5.0,SSE,6.9,-,N/A,,Overcast,160,2012-10-24 18:15:00
1:35 PM,60.8,57.2,88,29.88,5.0,SSE,8.1,-,N/A,,Overcast,160,2012-10-24 18:35:00
1:55 PM,60.8,59.0,94,29.87,6.0,SSE,9.2,-,N/A,,Mostly Cloudy,150,2012-10-24 18:55:00
2:15 PM,62.6,59.0,88,29.86,8.0,SSE,12.7,17.3,N/A,,Partly Cloudy,150,2012-10-24 19:15:00
2:35 PM,62.6,59.0,88,29.86,8.0,SSE,11.5,-,N/A,,Partly Cloudy,160,2012-10-24 19:35:00
2:55 PM,57.2,55.4,94,29.86,0.8,SSE,11.5,17.3,N/A,,Overcast,150,2012-10-24 19:55:00
3:15 PM,57.2,55.4,94,29.85,0.5,SSE,10.4,-,N/A,,Overcast,150,2012-10-24 20:15:00
3:35 PM,57.2,55.4,94,29.85,3.0,SSE,11.5,-,N/A,,Overcast,150,2012-10-24 20:35:00
3:55 PM,57.2,55.4,94,29.85,3.0,SSE,12.7,-,N/A,,Overcast,160,2012-10-24 20:55:00
4:15 PM,59.0,57.2,94,29.85,5.0,SSE,10.4,-,N/A,,Overcast,160,2012-10-24 21:15:00
4:35 PM,57.2,55.4,94,29.84,2.5,SSE,11.5,-,N/A,,Overcast,150,2012-10-24 21:35:00
4:55 PM,57.2,55.4,94,29.84,2.0,SSE,11.5,16.1,N/A,,Overcast,160,2012-10-24 21:55:00
5:15 PM,55.4,55.4,100,29.85,3.0,SSE,9.2,-,N/A,,Mostly Cloudy,160,2012-10-24 22:15:00
5:35 PM,55.4,55.4,100,29.84,3.0,SSE,10.4,-,N/A,,Mostly Cloudy,150,2012-10-24 22:35:00
5:55 PM,55.4,53.6,94,29.84,3.0,SSE,10.4,-,N/A,,Mostly Cloudy,150,2012-10-24 22:55:00
6:15 PM,55.4,53.6,94,29.84,4.0,SSE,12.7,-,N/A,,Mostly Cloudy,160,2012-10-24 23:15:00
6:35 PM,55.4,53.6,94,29.84,5.0,SSE,8.1,-,N/A,,Mostly Cloudy,160,2012-10-24 23:35:00
6:55 PM,55.4,53.6,94,29.84,5.0,SSE,12.7,-,N/A,,Scattered Clouds,160,2012-10-24 23:55:00
7:15 PM,57.2,55.4,94,29.83,7.0,SSE,13.8,-,N/A,,Partly Cloudy,160,2012-10-25 00:15:00
7:35 PM,57.2,55.4,94,29.83,7.0,South,11.5,-,N/A,,Mostly Cloudy,170,2012-10-25 00:35:00
7:55 PM,59.0,55.4,88,29.82,7.0,South,15.0,-,N/A,,Overcast,170,2012-10-25 00:55:00
8:15 PM,60.8,55.4,82,29.82,9.0,South,15.0,24.2,N/A,,Overcast,180,2012-10-25 01:15:00
8:35 PM,60.8,57.2,88,29.81,10.0,South,16.1,21.9,N/A,,Overcast,170,2012-10-25 01:35:00
8:55 PM,60.8,57.2,88,29.80,10.0,South,13.8,23.0,N/A,,Overcast,180,2012-10-25 01:55:00
9:15 PM,60.8,57.2,88,29.80,10.0,South,17.3,25.3,N/A,,Overcast,170,2012-10-25 02:15:00
9:35 PM,62.6,57.2,82,29.79,10.0,South,18.4,24.2,N/A,,Overcast,170,2012-10-25 02:35:00
9:55 PM,62.6,57.2,82,29.78,10.0,South,15.0,20.7,N/A,,Mostly Cloudy,180,2012-10-25 02:55:00
10:15 PM,62.6,57.2,82,29.78,10.0,South,17.3,23.0,N/A,,Overcast,180,2012-10-25 03:15:00
10:35 PM,60.8,57.2,88,29.77,10.0,South,16.1,23.0,N/A,,Overcast,170,2012-10-25 03:35:00
10:55 PM,60.8,57.2,88,29.77,10.0,South,16.1,23.0,N/A,,Mostly Cloudy,180,2012-10-25 03:55:00
11:15 PM,60.8,57.2,88,29.77,10.0,South,17.3,23.0,N/A,,Scattered Clouds,190,2012-10-25 04:15:00
11:35 PM,62.6,59.0,88,29.78,10.0,South,13.8,20.7,N/A,,Overcast,180,2012-10-25 04:35:00
11:55 PM,62.6,60.8,94,29.77,10.0,South,16.1,21.9,N/A,,Overcast,180,2012-10-25 04:55:00